Location: Newark
(48.1500°N, 2.9667°W)
Time: 10:17:34
(UTC+00:00)

Courier 1B - Pass Details

Date: 25 January 2020
Orbit: 962 x 1209 km, 28.3° (Epoch: 25 February)

Event Time Altitude Azimuth Distance (km) Brightness Sun altitude
Exits shadow 03:31:29 10° 142° (SE) 3,046 10.2 -42.4°
Drops below altitude 10° 03:31:37 10° 141° (SE) 3,063 10.2 -42.4°
Sets 03:36:21 0° 116° (ESE) 4,066 11.2 -41.7°
